When you browse on this site, cookies collect data to enhance your experience and personalize the content and advertising you see.
Visit our Privacy Policy to learn more. By continuing to use the site, you agree to this use of cookies and data.
  • In Switzerland
  • List of Countries
  • For 7 days
  • Water Temperature
  • Weather Map
  • Weather Widgets
  • user-avatar
    Login

    Hourly Weather Asadabad

    Today, 18 October, Friday

    Time Temperature Precipitation Wind Pressure Humidity
    00:00 +13°C° 1 mm 4 mps 659 mmHg 79%
    01:00 +14°C° 1 mm 4 mps 660 mmHg 75%
    02:00 +14°C° 1 mm 4 mps 660 mmHg 70%
    03:00 +14°C° 0.1 mm 4 mps 660 mmHg 71%
    04:00 +14°C° 0.1 mm 4 mps 659 mmHg 71%
    05:00 +14°C° 0 mm 3 mps 660 mmHg 70%
    06:00 +14°C° 0 mm 3 mps 660 mmHg 67%
    07:00 +16°C° 0 mm 3 mps 661 mmHg 65%
    08:00 +16°C° 0 mm 3 mps 661 mmHg 62%
    09:00 +18°C° 0.1 mm 3 mps 662 mmHg 57%
    10:00 +19°C° 0.1 mm 2 mps 662 mmHg 51%
    11:00 +21°C° 0 mm 1 mps 663 mmHg 48%
    12:00 +21°C° 0.6 mm 1 mps 663 mmHg 46%
    13:00 +22°C° 0.6 mm 1 mps 662 mmHg 44%
    14:00 +22°C° 0.6 mm 1 mps 662 mmHg 43%
    15:00 +22°C° 0.2 mm 1 mps 662 mmHg 44%
    16:00 +22°C° 0.2 mm 1 mps 662 mmHg 46%
    17:00 +21°C° 0.2 mm 1 mps 661 mmHg 48%
    18:00 +21°C° 0.1 mm 1 mps 661 mmHg 51%
    19:00 +20°C° 0.1 mm 1 mps 661 mmHg 54%
    20:00 +19°C° 0.1 mm 1 mps 661 mmHg 57%
    21:00 +18°C° 0.1 mm 1 mps 661 mmHg 56%
    22:00 +17°C° 0.1 mm 2 mps 661 mmHg 54%
    23:00 +16°C° 0.1 mm 2 mps 661 mmHg 52%

    Tomorrow, 19 October, Saturday

    Time Temperature Precipitation Wind Pressure Humidity
    00:00 +16°C° 0 mm 2 mps 661 mmHg 52%
    01:00 +16°C° 0 mm 2 mps 661 mmHg 51%
    02:00 +15°C° 0 mm 2 mps 660 mmHg 51%
    03:00 +15°C° 0 mm 2 mps 660 mmHg 50%
    04:00 +15°C° 0 mm 2 mps 660 mmHg 49%
    05:00 +15°C° 0 mm 2 mps 660 mmHg 48%
    06:00 +16°C° 0 mm 2 mps 661 mmHg 46%
    07:00 +17°C° 0 mm 2 mps 662 mmHg 43%
    08:00 +18°C° 0 mm 2 mps 662 mmHg 41%
    09:00 +19°C° 0 mm 2 mps 663 mmHg 37%
    10:00 +21°C° 0 mm 1 mps 663 mmHg 33%
    11:00 +23°C° 0 mm 1 mps 663 mmHg 29%
    12:00 +23°C° 0 mm 1 mps 663 mmHg 27%
    13:00 +24°C° 0 mm 1 mps 663 mmHg 26%
    14:00 +24°C° 0 mm 2 mps 663 mmHg 25%
    15:00 +24°C° 0 mm 1 mps 662 mmHg 29%
    16:00 +23°C° 0 mm 1 mps 662 mmHg 33%
    17:00 +23°C° 0 mm 1 mps 661 mmHg 37%
    18:00 +21°C° 0 mm 1 mps 661 mmHg 40%
    19:00 +20°C° 0 mm 1 mps 661 mmHg 43%
    20:00 +18°C° 0 mm 1 mps 661 mmHg 46%
    21:00 +18°C° 0 mm 1 mps 661 mmHg 45%
    22:00 +18°C° 0 mm 1 mps 661 mmHg 45%
    23:00 +18°C° 0 mm 1 mps 661 mmHg 44%

    Day after tomorrow, 20 October, Sunday

    Time Temperature Precipitation Wind Pressure Humidity
    00:00 +16°C° 0 mm 1 mps 661 mmHg 43%
    01:00 +16°C° 0 mm 1 mps 661 mmHg 42%
    02:00 +16°C° 0 mm 2 mps 660 mmHg 41%
    03:00 +15°C° 0 mm 2 mps 660 mmHg 41%
    04:00 +15°C° 0 mm 2 mps 660 mmHg 40%
    05:00 +15°C° 0 mm 2 mps 660 mmHg 39%
    06:00 +16°C° 0 mm 2 mps 661 mmHg 37%
    07:00 +17°C° 0 mm 2 mps 661 mmHg 35%
    08:00 +19°C° 0 mm 2 mps 662 mmHg 33%
    09:00 +21°C° 0 mm 1 mps 662 mmHg 30%
    10:00 +22°C° 0 mm 1 mps 662 mmHg 27%
    11:00 +24°C° 0 mm 1 mps 662 mmHg 23%
    12:00 +24°C° 0 mm 1 mps 662 mmHg 23%
    13:00 +25°C° 0 mm 2 mps 662 mmHg 23%
    14:00 +25°C° 0 mm 2 mps 661 mmHg 22%
    15:00 +24°C° 0 mm 2 mps 661 mmHg 28%
    16:00 +24°C° 0 mm 1 mps 661 mmHg 33%
    17:00 +23°C° 0 mm 1 mps 660 mmHg 38%
    18:00 +22°C° 0 mm 1 mps 660 mmHg 41%
    19:00 +18°C° 0 mm 0 mps 660 mmHg 44%
    20:00 +17°C° 0 mm 0 mps 660 mmHg 46%
    21:00 +17°C° 0 mm 0 mps 660 mmHg 46%
    22:00 +18°C° 0 mm 1 mps 660 mmHg 46%
    23:00 +16°C° 0 mm 1 mps 660 mmHg 46%

    21 October, Monday

    Time Temperature Precipitation Wind Pressure Humidity
    00:00 +16°C° 0 mm 1 mps 660 mmHg 44%
    01:00 +16°C° 0 mm 1 mps 659 mmHg 43%
    02:00 +16°C° 0 mm 1 mps 659 mmHg 42%
    03:00 +15°C° 0 mm 1 mps 659 mmHg 41%
    04:00 +15°C° 0 mm 1 mps 659 mmHg 40%
    05:00 +15°C° 0 mm 1 mps 659 mmHg 39%
    06:00 +16°C° 0 mm 1 mps 659 mmHg 37%
    07:00 +19°C° 0 mm 1 mps 660 mmHg 34%
    08:00 +20°C° 0 mm 1 mps 660 mmHg 32%
    09:00 +21°C° 0 mm 1 mps 661 mmHg 30%
    10:00 +22°C° 0 mm 1 mps 661 mmHg 28%
    11:00 +23°C° 0 mm 1 mps 661 mmHg 26%
    12:00 +24°C° 0 mm 1 mps 661 mmHg 26%
    13:00 +24°C° 0 mm 2 mps 660 mmHg 26%
    14:00 +25°C° 0 mm 2 mps 660 mmHg 26%
    15:00 +24°C° 0 mm 2 mps 660 mmHg 29%
    16:00 +23°C° 0 mm 2 mps 659 mmHg 33%
    17:00 +23°C° 0 mm 1 mps 659 mmHg 36%
    18:00 +21°C° 0 mm 1 mps 659 mmHg 42%
    19:00 +20°C° 0 mm 1 mps 659 mmHg 47%
    20:00 +16°C° 0 mm 0 mps 659 mmHg 53%
    21:00 +16°C° 0 mm 0 mps 659 mmHg 51%
    22:00 +18°C° 0 mm 1 mps 659 mmHg 50%
    23:00 +18°C° 0 mm 1 mps 659 mmHg 48%

    22 October, Tuesday

    Time Temperature Precipitation Wind Pressure Humidity
    00:00 +16°C° 0 mm 1 mps 658 mmHg 47%
    01:00 +16°C° 0 mm 1 mps 658 mmHg 45%
    02:00 +16°C° 0 mm 1 mps 658 mmHg 44%
    03:00 +15°C° 0 mm 1 mps 658 mmHg 44%
    04:00 +15°C° 0 mm 2 mps 658 mmHg 43%
    05:00 +15°C° 0 mm 2 mps 658 mmHg 43%
    06:00 +16°C° 0 mm 2 mps 658 mmHg 40%
    07:00 +17°C° 0 mm 2 mps 659 mmHg 37%
    08:00 +19°C° 0 mm 2 mps 659 mmHg 34%
    09:00 +21°C° 0 mm 1 mps 659 mmHg 32%
    10:00 +22°C° 0 mm 1 mps 660 mmHg 30%
    11:00 +23°C° 0 mm 1 mps 660 mmHg 28%
    12:00 +24°C° 0 mm 1 mps 659 mmHg 28%
    13:00 +24°C° 0 mm 2 mps 659 mmHg 28%
    14:00 +24°C° 0 mm 2 mps 658 mmHg 27%
    15:00 +24°C° 0 mm 2 mps 658 mmHg 31%
    16:00 +23°C° 0 mm 1 mps 658 mmHg 35%
    17:00 +23°C° 0 mm 1 mps 658 mmHg 39%
    18:00 +22°C° 0 mm 1 mps 658 mmHg 43%
    19:00 +19°C° 0 mm 0 mps 658 mmHg 47%
    20:00 +18°C° 0 mm 0 mps 658 mmHg 50%
    21:00 +18°C° 0 mm 0 mps 658 mmHg 49%
    22:00 +20°C° 0 mm 1 mps 658 mmHg 48%
    23:00 +20°C° 0 mm 1 mps 658 mmHg 47%

    23 October, Wednesday

    Time Temperature Precipitation Wind Pressure Humidity
    00:00 +19°C° 0.2 mm 1 mps 657 mmHg 49%
    01:00 +18°C° 0.2 mm 2 mps 657 mmHg 50%
    02:00 +18°C° 0.2 mm 3 mps 657 mmHg 51%
    03:00 +17°C° 0.2 mm 3 mps 657 mmHg 55%
    04:00 +15°C° 0.2 mm 4 mps 657 mmHg 59%
    05:00 +14°C° 0.2 mm 4 mps 656 mmHg 63%
    06:00 +15°C° 0.1 mm 4 mps 657 mmHg 60%
    07:00 +16°C° 0.1 mm 3 mps 657 mmHg 58%
    08:00 +17°C° 0.1 mm 3 mps 658 mmHg 55%
    09:00 +18°C° 0.1 mm 2 mps 658 mmHg 49%
    10:00 +19°C° 0.1 mm 2 mps 658 mmHg 44%
    11:00 +22°C° 0.1 mm 1 mps 659 mmHg 38%
    12:00 +22°C° 0.2 mm 1 mps 658 mmHg 37%
    13:00 +23°C° 0.2 mm 2 mps 658 mmHg 35%
    14:00 +23°C° 0.2 mm 2 mps 658 mmHg 33%
    15:00 +23°C° 0.1 mm 1 mps 658 mmHg 36%
    16:00 +22°C° 0.1 mm 1 mps 657 mmHg 39%
    17:00 +22°C° 0.1 mm 1 mps 657 mmHg 42%
    18:00 +20°C° 0.1 mm 1 mps 657 mmHg 46%
    19:00 +18°C° 0.1 mm 2 mps 657 mmHg 51%
    20:00 +17°C° 0.1 mm 2 mps 657 mmHg 55%
    21:00 +16°C° 0 mm 3 mps 657 mmHg 55%
    22:00 +16°C° 0 mm 3 mps 657 mmHg 55%
    23:00 +16°C° 0 mm 3 mps 657 mmHg 55%
    Show more